Simultaneous Nadir Overpasses (SNOs) Predictions

Prediction of SNOs between METOP-B and NOAA-19 Satellite Orbit:

Table of predicted SNOs for the next 14.0 days since TLE Epoch: 6/14/2013
Index Date (METOP-B) Time (METOP-B) Lat,Lon (METOP-B) SZA (METOP-B ) Date (NOAA-19) Time (NOAA-19) Lat,Lon (NOAA-19) SZA (NOAA-19 ) Distance(km) Time Diff (sec)
1 06/14/2013 04:36:34 73.29, 104.27 50.06 06/14/2013 04:36:55 73.28, 104.16 50.06 3.67 21
2 06/14/2013 05:27:16 -73.23, -88.52 129.99 06/14/2013 05:27:55 -73.24, -88.50 129.99 0.84 39
3 06/14/2013 06:17:57 73.22, 78.78 49.99 06/14/2013 06:18:58 73.20, 78.82 49.97 1.80 61
4 06/14/2013 07:08:43 -72.96,-114.44 130.24 06/14/2013 07:09:55 -73.01,-113.51 130.24 30.84 72
5 06/24/2013 01:06:38 73.95, 158.25 50.55 06/24/2013 01:05:31 73.96, 155.50 50.68 84.41 67
6 06/24/2013 01:57:31 -73.37, -35.79 129.99 06/24/2013 01:56:23 -73.39, -35.88 129.95 3.45 68
7 06/24/2013 02:48:12 73.33, 131.46 49.99 06/24/2013 02:47:23 73.34, 131.46 50.01 1.29 49
8 06/24/2013 03:38:54 -73.30, -61.29 130.05 06/24/2013 03:38:26 -73.31, -61.23 130.03 2.45 28
9 06/24/2013 04:29:34 73.31, 106.08 49.97 06/24/2013 04:29:27 73.32, 106.00 49.98 2.54 7
10 06/24/2013 05:20:16 -73.28, -86.67 130.07 06/24/2013 05:20:30 -73.28, -86.68 130.06 0.95 14
11 06/24/2013 06:10:57 73.24, 80.58 49.91 06/24/2013 06:11:30 73.24, 80.65 49.90 2.44 33
12 06/24/2013 07:01:38 -73.26,-112.06 130.08 06/24/2013 07:02:34 -73.26,-112.14 130.09 2.77 56
13 06/24/2013 07:52:20 73.17, 55.08
